Weather History for Lafayette, IN

Change the Weather History Date:

Thursday, September 25, 2014

  Actual Average Record
Temperature  
Mean Temperature 64 °F 62 °F  
Max Temperature 78 °F 74 °F 89 °F (1986)
Min Temperature 50 °F 51 °F 36 °F (1967)
Degree Days  
Heating Degree Days 1 5  
Month to date heating degree days 120 51  
Since 1 July heating degree days 144 57  
Cooling Degree Days 0 2  
Month to date cooling degree days 57 104  
Year to date cooling degree days 733 956  
Growing Degree Days 14 (Base 50)    
Moisture  
Dew Point 53 °F    
Average Humidity 70    
Maximum Humidity 100    
Minimum Humidity 40    
Precipitation  
Precipitation 0.00 in 0.09 in 1.43 in (2005)
Month to date precipitation 4.80 2.21  
Year to date precipitation 30.12 27.76  
Sea Level Pressure  
Sea Level Pressure 30.25 in    
Wind  
Wind Speed 1 mph (NE)    
Max Wind Speed 9 mph    
Max Gust Speed 13 mph    
Visibility 9 miles    
Events      
T = Trace of Precipitation, MM = Missing Value Source: NWS Daily Summary

Daily Weather History Graph

Daily Weather History Graph

Search for Another Location

Airport:

Trip Planner

Search our weather history database for the weather conditions in past years. The results will help you decide how hot, cold, wet, or windy it might be!

Date:

Astronomy

Sep. 25, 2014 Rise Set
Actual Time 7:38 AM EDT 7:39 PM EDT
Civil Twilight 7:11 AM EDT 8:06 PM EDT
Nautical Twilight 6:39 AM EDT 8:38 PM EDT
Astronomical Twilight 6:07 AM EDT 9:10 PM EDT
Moon 8:56 AM EDT (9/25) 8:23 PM EDT (9/25)
Length of Visible Light 12h 55m
Length of Day
12h 01m
New Moon, 2% of the Moon is Illuminated
Sep 25
New Moon
Oct 1
First Quarter
Oct 8
Full
Oct 15
Last Quarter
Oct 23
New

Hourly Weather History & Observations

Time (EDT) Temp. Dew Point Humidity Pressure Visibility Wind Dir Wind Speed Gust Speed Precip Events Conditions
12:54 AM 52.0 °F 51.1 °F 97% 30.27 in 10.0 mi Calm Calm - N/A   Clear
1:54 AM 52.0 °F 50.0 °F 93% 30.27 in 10.0 mi Calm Calm - N/A   Clear
2:54 AM 51.1 °F 50.0 °F 96% 30.27 in 10.0 mi Calm Calm - N/A   Clear
3:54 AM 52.0 °F 51.1 °F 97% 30.27 in 10.0 mi Calm Calm - N/A   Clear
4:54 AM 52.0 °F 51.1 °F 97% 30.27 in 10.0 mi Calm Calm - N/A   Clear
5:54 AM 51.1 °F 50.0 °F 96% 30.28 in 6.0 mi Calm Calm - N/A   Clear
6:54 AM 51.1 °F 50.0 °F 96% 30.29 in 8.0 mi Calm Calm - N/A   Clear
7:54 AM 51.1 °F 50.0 °F 96% 30.30 in 6.0 mi Calm Calm - N/A   Clear
8:54 AM 52.0 °F 51.1 °F 97% 30.31 in 6.0 mi Calm Calm - N/A   Clear
9:54 AM 59.0 °F 55.0 °F 87% 30.32 in 10.0 mi Calm Calm - N/A   Clear
10:54 AM 64.9 °F 57.0 °F 75% 30.31 in 10.0 mi Calm Calm - N/A   Clear
11:54 AM 70.0 °F 55.9 °F 61% 30.30 in 10.0 mi NE 3.5 mph - N/A   Clear
12:54 PM 73.0 °F 55.9 °F 55% 30.28 in 10.0 mi Calm Calm - N/A   Clear
1:54 PM 73.9 °F 55.0 °F 52% 30.26 in 10.0 mi East 8.1 mph - N/A   Clear
2:54 PM 75.0 °F 52.0 °F 44% 30.24 in 10.0 mi Calm Calm - N/A   Clear
3:54 PM 77.0 °F 54.0 °F 45% 30.22 in 10.0 mi East 6.9 mph - N/A   Clear
4:54 PM 77.0 °F 55.0 °F 47% 30.20 in 10.0 mi ESE 4.6 mph - N/A   Clear
5:54 PM 77.0 °F 52.0 °F 42% 30.19 in 10.0 mi Calm Calm - N/A   Clear
6:54 PM 73.0 °F 55.9 °F 55% 30.20 in 10.0 mi NNW 3.5 mph - N/A   Clear
7:54 PM 64.9 °F 57.9 °F 78% 30.20 in 10.0 mi Calm Calm - N/A   Scattered Clouds
8:54 PM 64.0 °F 55.9 °F 75% 30.21 in 10.0 mi NNE 3.5 mph - N/A   Clear
9:54 PM 59.0 °F 55.9 °F 90% 30.21 in 10.0 mi NNW 4.6 mph - N/A   Clear
10:54 PM 59.0 °F 55.9 °F 90% 30.22 in 10.0 mi Calm Calm - N/A   Clear
11:54 PM 55.9 °F 54.0 °F 93% 30.22 in 10.0 mi Calm Calm - N/A   Clear